Terminal Aerodrome Forecast
Issued by NWS

Home | Current Version | Previous Version | Text Only | Print | Product List | Glossary On
Versions: 1 2 3 4 5 6 7 8 9 10 11 12 13 14 15 16 17 18 19 20
000
FTUS43 KTOP 302046 AAB
TAFFOE
TAF AMD
KFOE 302046Z 3021/3118 19011KT P6SM VCTS SCT040 BKN060CB
      TEMPO 3022/3101 -TSRA
     FM310100 16006KT P6SM SCT040 SCT250
     FM311000 17005KT 5SM BR SCT010 BKN020
     FM311500 18007KT P6SM VCTS BKN020CB=

USA.gov is the U.S. government's official web portal to all federal, state and local government web resources and services.